Regional Weather Roundup
Issued by NWS

Home | Current Version | Previous Version | Text Only | Print | Product List | Glossary Off
Versions: 1 2 3 4 5 6 7 8 9 10 11 12 13 14 15 16 17 18 19 20 21 22 23 24 25 26 27 28 29 30 31 32 33 34 35 36 37 38 39 40 41 42 43 44 45 46 47 48 49 50

000
ASUS43 KLMK 191002
RWRKY
KENTUCKY REGIONAL WEATHER ROUNDUP
NATIONAL WEATHER SERVICE LOUISVILLE KY
500 AM EST SUN NOV 19 2017

NOTE "FAIR" INDICATES FEW OR NO CLOUDS BELOW 12,000 FEET
WITH NO SIGNIFICANT WEATHER AND/OR OBSTRUCTIONS TO VISIBILITY.

KYZ001>023-026-027-061>063-070>075-191100-
WESTERN AND SOUTH CENTRAL KENTUCKY

CITY           SKY/WX    TMP DP  RH WIND       PRES   REMARKS
PADUCAH        CLEAR     38  26  62 NW9       30.08R WCI  31
HENDERSON      CLOUDY    37  29  72 NW13      30.05S WCI  29
OWENSBORO      CLOUDY    40  32  73 NW14      30.03R WCI  32
HOPKINSVILLE   CLOUDY    40  32  74 NW6       30.05R
BOWLING GREEN  CLOUDY    42  34  73 NW7       30.02R
GLASGOW        NOT AVBL
$$

KYZ024-025-028>034-038-045-046-053-191100-
NORTH CENTRAL KENTUCKY

CITY           SKY/WX    TMP DP  RH WIND       PRES   REMARKS
LOUISVILLE/SDF CLOUDY    42  30  62 NW9       29.96R
LOUISVILLE/LOU CLOUDY    41  31  67 NW9       29.96S
FORT KNOX      CLOUDY    40  32  74 W7        29.94S WCI  35
$$

KYZ035>037-039>044-047>052-055>060-089>105-191100-
NORTHEAST KENTUCKY

CITY           SKY/WX    TMP DP  RH WIND       PRES   REMARKS
LEXINGTON      CLOUDY    39  33  79 W10       29.93R WCI  32
COVINGTON      CLOUDY    39  31  72 W12       29.89R WCI  32
FRANKFORT      CLOUDY    40  31  70 W7        29.93R
$$

KYZ054-064>069-076>088-106>120-191100-
SOUTHEAST KENTUCKY

CITY           SKY/WX    TMP DP  RH WIND       PRES   REMARKS
JACKSON        CLOUDY    38  35  89 W9G21     29.88R WCI  31
LONDON         CLOUDY    39  36  89 W9        29.92S WCI  33
SOMERSET       NOT AVBL
MIDDLESBORO    RAIN      40  36  87 NW9       29.94R WCI  33
MONTICELLO     CLOUDY    40  34  79 N14       29.99R WCI  32
$$





USA.gov is the U.S. government's official web portal to all federal, state and local government web resources and services.